Погода Костанай

Погода Костанай : погода сейчас, прогноз погоды и архив. Всё, что Вы хотите узнать о погоде Костанай!

Хотите узнать прогноз погоды в Костанае? Тогда Вам сюда: Погода в Костанае

Поиск расширенной информации на нашем сайте:

Другие новости

Новости СМИ2

Главная страница сайта

Новости сайта

03.07.2017

Напоминаем, что на нашем специализированном сайте Метеоцентр.Азия вы можете получить высокодетализированные автоматические прогнозы погоды по пунктам России, СНГ и мира в авиационном формате (включающие направление и скорость ветра, видимость, явления погоды, количество и форму облачности, нижнюю и верхнюю границу облачности).


Погода Костанай - сегодня

Время (UTC), дата Ветер
(°,м/с) 
Видим.   Явления Облачность Т
(°С)
Тd
(°С)
f(%) Тe
(°С)
Pmin
(гПа)
dP
(гПа)
Po
(мм)
O2
(г/м3)
Тmin Tmax R s Состояние
почвы
03 22.11.17 160 (Ю) 20000 м    6/6 600 м 
[Sc]
-1.8 -6 73 -5  1023.6  -0.8  753  306           
06 22.11.17 140 (ЮВ) 20000 м    8/8 1000 м 
[Sc]
+0.9 -4.4 68 -2  1023.7  0.2  753  303  -2.3         
09 22.11.17 140 (ЮВ) 20000 м    8/8 1000 м 
[Sc]
+3.4 -4 58 +1  1023.2  -0.3  753  300           
12 22.11.17 140 (ЮВ) 20000 м    6/3 1000 м верхняя 
[Sc|Ci fib]
+1.7 -4.9 62 +1  1022.8  -0.5  753  302           
15 22.11.17 140 (ЮВ) н/о    ясно 
+0.5 -5.3 65 -1  1022.3  -0.6  752  303    +4       
18 22.11.17 140 (ЮВ) н/о    ясно 
-0.8 -5.3 71 -3  1022.1  -0.3  752  305    +4       
21 22.11.17 140 (ЮВ) н/о    ясно 
-1 -4.9 75 -5  1021.6  -0.5  752  305           
00 23.11.17 140 (ЮВ) н/о    ясно 
-0.8 -5 73 -4  1021.3  -0.3  752  304           
03 23.11.17 110 (В) 20000 м    9/0 средняя 
[Ac trans]
-1 -5.6 71 -4  1021.3  752  305           
06 23.11.17 110 (В) 20000 м    6/0 средняя, верхняя 
[Ac trans|Ci fib]
+1.6 -5 61 +1  1021.6  0.5  752  302  -1         
09 23.11.17 090 (В) 20000 м    3/0 средняя, верхняя 
[Ac trans|Ci fib]
+6.4 -2.6 53 +6  1020  -1.2  751  296           
12 23.11.17 090 (В) 20000 м    6/0 средняя 
[Ac trans]
+3 -4.2 59 +2  1019.9  -0.4  751  300           
15 23.11.17 110 (В) н/о    8/0 средняя 
[Ac trans]
+2.4 -4.7 59 1019.6  -0.3  750  300    +6.5       
18 23.11.17 110 (В) н/о    4/0 средняя 
[Ac trans]
+0 -6.3 63 -1  1019.7  750  303    +6.5       
21 23.11.17 110 (В) н/о    ясно 
-0.4 -6.5 63 -1  1019.5  -0.2  750  303           
00 24.11.17 110 (В) н/о    3/0 средняя 
[Ac trans]
-2.3 -7 70 -4  1019.5  -0.2  750  306           
03 24.11.17 110 (В) 20000 м    8/0 средняя, верхняя 
[Ac lent|Ci]
-3.1 -7.3 73 -4  1019.1  -0.5  750  306           
06 24.11.17 140 (ЮВ) 20000 м    9/0 средняя, верхняя 
[Ac lent|Ci]
-0.4 -6.1 65 -1  1019.8  751  304  -3.1         
09 24.11.17 110 (В) 20000 м    8/0 средняя, верхняя 
[Ac lent|Ci]
+3.7 -4.4 55 +5  1018.1  -1.4  749  298           
12 24.11.17 110 (В) 20000 м    6/0 верхняя 
[Ci]
+0.3 -5.9 63 +1  1018  -0.4  749  302           
15 24.11.17 110 (В) н/о    ясно 
-3.7 -7 78 -3  1018.5  0.2  749  307    +5       
18 24.11.17 290 (З) н/о    3/0 средняя 
[Ac trans]
-3.9 -6.8 80 -3  1018.1  -0.4  749  307    +5       
21 24.11.17 тихо ()   н/о    ясно 
-5.1 -7.6 83 -5  1017.8  -0.4  749  308           
00 25.11.17 тихо ()   н/о    ясно 
-8.1 -9.9 87 -8  1018.1  0.1  749  312           
03 25.11.17 320 (СЗ) 20000 м    8/0 средняя 
[Ac lent]
-8.7 -11.6 79 -8  1018.5  0.3  749  313           
Время (UTC), дата Ветер
(°,м/с) 
Видим.   Явления Облачность Т
(°С)
Тd
(°С)
f(%) Тe
(°С)
Pmin
(гПа)
dP
(гПа)
Po
(мм)
O2
(г/м3)
Тmin Tmax R s Состояние
почвы

Для получения пояснительной информации подведите курсор к названию столбца.

ПОГОДА Костанай - архив

Всё, что Вы хотите узнать о погоде Костанай - удобно и подробно!

Выберите нужную дату (начиная с 1 января 2015* года) и нажмите кнопку "Найти".
Будут отображены архивные сводки погоды по пункту Костанай, начиная с указанной даты.


Отображать данные в формате CSV (для использования в таблицах Excel)


Внимание! Наш архив погоды предназначен исключительно для личного некоммерческого использования в познавательных целях. Если Вам необходимы официальные справки о состоянии погоды (для производственных, юридических, коммерческих и т.п. целей), обращайтесь в органы Росгидромета.

*Примечание: данная дата относится к архиву по метеостанциям СССР (Россия, СНГ, Балтия).
Архив по метеостанциям Зарубежной Европы и Азии (кроме Китая) хранится 10 дней, по другим регионам земного шара (Китай, Африка, Америка, Австралия, Океания) - 1 день.

Костанай - район местоположения метеостанции


Название, широта, долгота, высота метеостанции:
Костанай (город) 53.2°ш. 63.6°д. 156 м над ур. моря [Казахстан]

Дополнительная информация

В oтличие oт бoльшинства пoгoдных сайтoв мы публикуем пoдрoбную метеoинфoрмацию в детальнoм прoфессиoнальнoм фoрмате.

Характеристики температуры и влажнoсти вoздуха измеряются на высoте 2 м в тени вдали oт зданий и деревьев.
Скoрoсть ветра измеряется на высoте 10 м (на урoвне рoста челoвека скoрoсть ветра ниже в 1.5-2 раза). Если метеoстанция нахoдится в гoрoде или в лесу, тo скoрoсть ветра занижена на 2-4 м/с пo сравнению с oткрытым местoм. Скoрoсть ветра над акватoриями крупных рек и oзёр, а также на вершинах хoлмoв на 2-5 м/с выше, чем в oбычных услoвиях.
Атмoсфернoе давление в разных тoчках местнoсти мoжет значительнo oтличаться oт давления на метеoстанции, в зависимoсти oт услoвий рельефа (при пoдъёме на 10 м давление пoнижается примернo на 1 мм рт.ст.).